Flag for U.S.A. Weather past 2 weeks in Chicago, Illinois, U.S.A.

Now
58 °F

Overcast.


Feels Like: 57 °F
Forecast: 57 / 67 °F
Wind: 7 mph from Northeast

Location: Chicago Midway Airport

Current Time: Jul 2, 2015 at 4:08:33 AM

Latest Report: Jul 2, 2015 at 2:53 AM


Visibility: 10 mi

Pressure: 29.98 "Hg

Humidity: 84%

Dew point: 53 °F

Location of ChicagoLocation

Historic Weather in Chicago — Graph

°F

Chicago temperature yesterday

Maximum temperature yesterday: 67 °F (at 11:53 AM)
Minimum temperature yesterday: 58 °F (at 9:53 PM)
Average temperature yesterday: 62 °F

Past Weeks' High & Low Weather Summary

 TemperatureHumidityPressure
High87 °F (Jun 21, 2:53 PM)96% (Jun 18, 5:53 AM)30.14 "Hg (Jun 18, 5:53 AM)
Low57 °F (Jun 19, 2:53 AM)34% (Jun 27, 6:53 PM)29.67 "Hg (Jun 22, 5:53 PM)
Average70 °F72%29.92 "Hg
* Reported Jun 17 5:53 AM — Jul 2 2:53 AM, Chicago, Weather by CustomWeather, © 2015

Note: Actual official high and low records may vary slightly from our data, if they occured in-between our weather recording intervals... More about our weather records

Advertising

Chicago weather history for previous 24 hours

 ConditionsComfort  
Time TempWeatherWind HumidityBarometerVisibility
2:53 AM
Thu, Jul 2
58 °FOvercast.7 mph84%29.98 "Hg10 mi
1:53 AM57 °FPassing clouds.7 mph81%29.98 "Hg10 mi
12:53 AM58 °FPassing clouds.9 mph78%29.98 "Hg10 mi
11:53 PM
Wed, Jul 1
59 °FOvercast.8 mph75%29.98 "Hg10 mi
10:53 PM58 °FMostly cloudy.9 mph78%29.98 "Hg10 mi
9:53 PM58 °FMostly cloudy.8 mph81%29.99 "Hg10 mi
8:53 PM59 °FMostly cloudy.8 mph75%29.98 "Hg10 mi
7:53 PM60 °FBroken clouds.13 mph72%29.98 "Hg10 mi
6:53 PM62 °FPartly sunny.13 mph67%29.97 "Hg10 mi
5:53 PM63 °FPartly sunny.10 mph68%29.96 "Hg10 mi
4:53 PM63 °FOvercast.12 mph65%29.95 "Hg10 mi
3:53 PM65 °FPartly sunny.13 mph63%29.95 "Hg10 mi
2:53 PM66 °FOvercast.12 mph63%29.96 "Hg10 mi
1:53 PM65 °FMore clouds than sun.13 mph68%29.95 "Hg10 mi
12:53 PM66 °FOvercast.7 mph68%29.96 "Hg10 mi
11:53 AM67 °FPartly sunny.8 mph63%29.96 "Hg10 mi
10:53 AM65 °FMostly cloudy.7 mph68%29.96 "Hg10 mi
9:53 AM63 °FMostly cloudy.5 mph73%29.96 "Hg10 mi
8:53 AM62 °FMostly cloudy.7 mph73%29.96 "Hg10 mi
7:53 AM61 °FBroken clouds.9 mph72%29.96 "Hg10 mi
6:53 AM60 °FMostly cloudy.8 mph78%29.95 "Hg10 mi
5:53 AM59 °FOvercast.10 mph81%29.92 "Hg10 mi
4:53 AM59 °FPassing clouds.8 mph81%29.91 "Hg10 mi
Weather by CustomWeather, © 2015

See weather overviewHow to use our weather pages